Change the Weather History Date:

Tuesday, November 4, 2014

  Actual Average Record
Temperature  
Mean Temperature 50 °F -  
Max Temperature 62 °F 45 °F 64 °F (2012)
Min Temperature 39 °F 32 °F 21 °F (1997)
Degree Days  
Heating Degree Days 14    
Moisture  
Dew Point 42 °F    
Average Humidity 75    
Maximum Humidity 93    
Minimum Humidity 52    
Precipitation  
Precipitation 0.00 in - - ()
Sea Level Pressure  
Sea Level Pressure 29.91 in    
Wind  
Wind Speed 9 mph ()    
Max Wind Speed 18 mph    
Max Gust Speed -    
Visibility 2.5 miles    
Events      
Averages and records for this station are not official NWS values.
T = Trace of Precipitation, MM = Missing Value Source: Averaged Metar Reports

Daily Weather History Graph

Daily Weather History Graph

Search for Another Location

Airport or City:

Trip Planner

Search our weather history database for the weather conditions in past years. The results will help you decide how hot, cold, wet, or windy it might be!

Date:

Astronomy

Nov. 04, 2014 Rise Set
Actual Time 6:30 AM CET 4:21 PM CET
Civil Twilight 5:58 AM CET 4:54 PM CET
Nautical Twilight 5:21 AM CET 5:30 PM CET
Astronomical Twilight 4:46 AM CET 6:06 PM CET
Moon 3:07 PM CET (11/4) 3:15 AM CET (11/4)
Length of Visible Light 10h 55m
Length of Day
9h 50m
Waxing Gibbous, 92% of the Moon is Illuminated
Nov 4
Waxing Gibbous
Nov 6
Full
Nov 14
Last Quarter
Nov 22
New
Nov 29
First Quarter

Hourly Weather History & Observations

Time (CET) Temp. Windchill Dew Point Humidity Pressure Visibility Wind Dir Wind Speed Gust Speed Precip Events Conditions
12:00 AM 41.0 °F 37.1 °F 39.2 °F 93% 29.98 in 1.9 mi East 5.8 mph - N/A   Partly Cloudy
12:30 AM 42.8 °F 37.5 °F 41.0 °F 93% 29.98 in 1.9 mi East 9.2 mph - N/A   Mist
1:00 AM 41.0 °F 35.8 °F 39.2 °F 93% 29.98 in 1.9 mi East 8.1 mph - N/A   Mist
1:30 AM 41.0 °F 35.2 °F 39.2 °F 93% 29.98 in 1.9 mi ESE 9.2 mph - N/A   Mist
2:00 AM 41.0 °F 35.2 °F 39.2 °F 93% 29.98 in 1.9 mi ESE 9.2 mph - N/A   Mist
2:30 AM 41.0 °F 35.8 °F 39.2 °F 93% 29.95 in 1.9 mi ESE 8.1 mph - N/A   Mist
3:00 AM 41.0 °F 36.4 °F 39.2 °F 93% 29.95 in 1.9 mi East 6.9 mph - N/A   Mist
3:30 AM 39.2 °F 35.0 °F 37.4 °F 93% 29.95 in 1.9 mi ESE 5.8 mph - N/A   Mist
4:00 AM 39.2 °F 34.2 °F 37.4 °F 93% 29.95 in - ESE 6.9 mph - N/A   Mist
4:30 AM 39.2 °F 33.6 °F 35.6 °F 87% 29.95 in - ESE 8.1 mph - N/A   Mist
5:00 AM 39.2 °F 34.2 °F 37.4 °F 93% 29.95 in - East 6.9 mph - N/A   Mist
5:30 AM 39.2 °F 33.0 °F 37.4 °F 93% 29.95 in - ESE 9.2 mph - N/A   Mist
6:00 AM 39.2 °F 34.2 °F 37.4 °F 93% 29.95 in - East 6.9 mph - N/A   Mist
6:30 AM 41.0 °F 35.2 °F 39.2 °F 93% 29.95 in - ESE 9.2 mph - N/A   Mist
7:00 AM 41.0 °F 35.8 °F 37.4 °F 87% 29.95 in 2.2 mi East 8.1 mph - N/A   Mist
7:30 AM 42.8 °F 37.0 °F 39.2 °F 87% 29.95 in 2.2 mi East 10.4 mph - N/A   Mist
8:00 AM 44.6 °F 40.7 °F 41.0 °F 87% 29.95 in 2.5 mi ESE 6.9 mph - N/A   Mist
8:30 AM 46.4 °F 42.4 °F 42.8 °F 87% 29.95 in 3.1 mi East 8.1 mph - N/A   Mist
9:00 AM 48.2 °F - 44.6 °F 87% 29.95 in 3.1 mi ESE 5.8 mph - N/A   Mist
9:30 AM 51.8 °F - 42.8 °F 71% 29.95 in 3.7 mi ESE 6.9 mph - N/A   Unknown
10:00 AM 55.4 °F - 44.6 °F 67% 29.95 in 5.0 mi SE 5.8 mph - N/A   Unknown
10:30 AM 55.4 °F - 42.8 °F 63% 29.95 in - SSE 8.1 mph - N/A   Clear
11:00 AM 59.0 °F - 44.6 °F 59% 29.92 in - South 9.2 mph - N/A   Clear
11:30 AM 59.0 °F - 42.8 °F 55% 29.92 in - SSE 13.8 mph - N/A   Clear
12:00 PM 60.8 °F - 42.8 °F 52% 29.92 in - South 15.0 mph - N/A   Clear
12:30 PM 62.6 °F - 44.6 °F 52% 29.89 in - South 15.0 mph - N/A   Clear
1:00 PM 62.6 °F - 44.6 °F 52% 29.89 in - South 17.3 mph - N/A   Clear
1:30 PM 60.8 °F - 44.6 °F 55% 29.89 in - South 17.3 mph - N/A   Clear
2:00 PM 60.8 °F - 44.6 °F 55% 29.86 in - South 18.4 mph - N/A   Clear
2:30 PM 60.8 °F - 44.6 °F 55% 29.86 in - South 16.1 mph - N/A   Clear
3:00 PM 60.8 °F - 44.6 °F 55% 29.86 in - South 17.3 mph - N/A   Clear
3:30 PM 60.8 °F - 44.6 °F 55% 29.86 in - South 15.0 mph - N/A   Clear
4:00 PM 59.0 °F - 44.6 °F 59% 29.86 in - South 15.0 mph - N/A   Clear
4:30 PM 59.0 °F - 42.8 °F 55% 29.86 in - SSE 12.7 mph - N/A   Clear
5:00 PM 57.2 °F - 42.8 °F 59% 29.86 in - SSE 11.5 mph - N/A   Clear
5:30 PM 55.4 °F - 42.8 °F 63% 29.86 in - SE 10.4 mph - N/A   Clear
6:00 PM 50.0 °F - 42.8 °F 76% 29.86 in - SE 9.2 mph - N/A   Clear
6:30 PM 51.8 °F - 44.6 °F 76% 29.86 in - SE 9.2 mph - N/A   Clear
7:00 PM 51.8 °F - 44.6 °F 76% 29.89 in - SE 10.4 mph - N/A   Clear
7:30 PM 51.8 °F - 42.8 °F 71% 29.86 in - SE 9.2 mph - N/A   Clear
8:00 PM 53.6 °F - 42.8 °F 67% 29.86 in - SSE 10.4 mph - N/A   Clear
8:30 PM 51.8 °F - 42.8 °F 71% 29.89 in - SSE 11.5 mph - N/A   Clear
9:00 PM 51.8 °F - 42.8 °F 71% 29.89 in - SE 10.4 mph - N/A   Clear
9:30 PM 48.2 °F - 41.0 °F 76% 29.89 in - SE 9.2 mph - N/A   Clear
10:00 PM 50.0 °F - 42.8 °F 76% 29.86 in - SE 9.2 mph - N/A   Clear
10:30 PM 46.4 °F 42.4 °F 39.2 °F 76% 29.86 in - SE 8.1 mph - N/A   Clear
11:00 PM 46.4 °F 41.9 °F 41.0 °F 81% 29.86 in - SE 9.2 mph - N/A   Clear
11:30 PM 48.2 °F - 41.0 °F 76% 29.86 in - SE 9.2 mph - N/A   Clear